CDT,Max TemperatureF,Mean TemperatureF,Min TemperatureF,Max Dew PointF,MeanDew PointF,Min DewpointF,Max Humidity, Mean Humidity, Min Humidity, Max Sea Level PressureIn, Mean Sea Level PressureIn, Min Sea Level PressureIn, Max VisibilityMiles, Mean VisibilityMiles, Min VisibilityMiles, Max Wind SpeedMPH, Mean Wind SpeedMPH, Max Gust SpeedMPH,PrecipitationIn, CloudCover, Events, WindDirDegrees
2013-8-1,86,75,63,69,66,62,100,74,48,30.07,30.01,29.98,10,9,4,13,4,16,0.00,1,,357
2013-8-2,85,72,59,69,65,59,100,78,55,30.03,29.99,29.95,10,10,6,10,3,14,0.00,1,,194
2013-8-3,84,77,70,73,71,66,93,81,69,30.06,29.99,29.92,10,8,1,10,4,14,0.08,6,Rain-Thunderstorm,240
2013-8-4,82,74,65,70,65,61,97,76,54,30.14,30.10,30.05,10,10,8,10,4,,0.00,0,,54
2013-8-5,75,70,64,68,65,62,93,81,68,30.08,30.02,29.92,10,8,2,9,3,20,0.19,6,Rain,140
2013-8-6,83,77,70,74,71,68,100,85,69,29.96,29.91,29.88,10,8,4,9,2,20,T,6,Thunderstorm,164
2013-8-7,83,76,69,73,71,69,100,85,69,29.95,29.90,29.86,10,8,1,17,4,22,1.00,4,Rain-Thunderstorm,184
2013-8-8,84,76,68,75,71,68,100,87,74,29.98,29.92,29.88,10,6,0,15,2,22,0.08,3,Fog-Rain-Thunderstorm,163
2013-8-9,85,78,71,76,73,70,100,87,74,30.04,29.97,29.91,10,8,2,17,2,25,0.19,5,Rain-Thunderstorm,292
2013-8-10,82,76,70,73,72,70,100,87,74,30.12,30.07,30.02,10,6,1,8,1,20,0.32,7,Rain-Thunderstorm,28
2013-8-11,88,79,69,73,70,68,100,78,55,30.12,30.08,30.04,10,5,0,6,1,10,0.00,4,Fog,43
2013-8-12,86,79,71,77,73,70,100,87,74,30.06,29.98,29.90,10,7,0,17,4,21,1.27,6,Fog-Rain-Thunderstorm,205
2013-8-13,84,75,65,72,69,62,100,78,55,30.05,29.96,29.92,10,7,2,16,7,21,0.00,4,,319
2013-8-14,75,65,55,62,54,52,93,70,46,30.15,30.11,30.05,10,10,10,18,8,22,0.00,0,,42
2013-8-15,77,65,53,58,55,52,100,74,47,30.12,30.08,30.04,10,10,10,16,4,25,0.00,0,,48
2013-8-16,80,69,57,63,59,55,93,74,54,30.09,30.07,30.04,10,10,10,16,5,28,0.00,5,,43
2013-8-17,79,72,65,70,65,61,93,84,74,30.16,30.10,30.06,10,7,1,13,5,18,0.57,7,Rain-Thunderstorm,47
2013-8-18,80,72,63,69,66,63,100,85,69,30.15,30.11,30.06,10,6,0,12,1,15,0.01,6,Fog,7
2013-8-19,83,73,63,71,66,63,100,79,58,30.13,30.09,30.03,10,5,0,8,1,15,0.00,3,Fog,106
2013-8-20,89,77,64,71,66,63,100,75,50,30.11,30.06,30.03,10,5,0,17,1,28,T,2,Fog,106
2013-8-21,90,78,65,73,68,64,100,76,52,30.14,30.09,30.05,10,5,0,7,2,10,0.00,1,Fog,233
2013-8-22,93,80,67,74,70,65,93,70,47,30.12,30.06,30.01,10,9,4,8,1,13,0.00,0,,267
2013-8-23,92,81,70,75,72,68,94,75,56,30.08,30.05,30.01,10,6,2,13,2,23,0.00,1,,23
2013-8-24,91,80,68,72,69,66,97,72,47,30.18,30.12,30.08,10,4,0,14,3,31,0.00,0,Fog,84
2013-8-25,89,78,67,74,70,64,93,75,56,30.27,30.21,30.18,10,7,2,16,3,24,0.00,2,,181
2013-8-26,89,81,72,73,71,68,90,75,59,30.25,30.18,30.11,10,8,6,13,5,16,0.00,1,,219
2013-8-27,89,80,71,74,71,68,90,76,61,30.12,30.07,30.02,10,9,6,12,6,15,0.00,0,,224
2013-8-28,93,82,71,73,70,67,93,67,41,30.05,30.02,29.99,10,9,4,12,5,15,0.00,1,,242
2013-8-29,95,84,72,74,71,68,90,67,44,30.03,29.99,29.95,10,10,7,9,4,14,0.00,0,,264
2013-8-30,95,83,71,75,72,69,93,68,43,29.98,29.92,29.86,10,10,7,9,3,13,0.00,0,,231
2013-8-31,96,87,77,76,74,72,88,68,48,29.89,29.83,29.77,10,9,7,12,5,15,0.00,2,Thunderstorm,218